When you browse on this site, cookies collect data to enhance your experience and personalize the content and advertising you see.
Visit our Privacy Policy to learn more. By continuing to use the site, you agree to this use of cookies and data.
  • In Hungary
  • List of Countries
  • For 7 days
  • Water Temperature
  • Satellite Maps
  • Weather Map
  • News
  • Weather Widgets
  • user-avatar
    Login

    Hourly Weather Nara

    Today, 24 January, Thursday

    Time Temperature Precipitation Wind Pressure Humidity
    00:00 +6°C° 0 mm 5 mps 730 mmHg 63%
    01:00 +5°C° 0.1 mm 5 mps 730 mmHg 65%
    02:00 +5°C° 0.1 mm 5 mps 730 mmHg 67%
    03:00 +5°C° 0 mm 5 mps 730 mmHg 72%
    04:00 +3°C° 0 mm 5 mps 731 mmHg 71%
    05:00 +2°C° 0 mm 5 mps 731 mmHg 70%
    06:00 +1°C° 0 mm 5 mps 731 mmHg 70%
    07:00 +1°C° 0 mm 5 mps 732 mmHg 66%
    08:00 +1°C° 0 mm 5 mps 732 mmHg 62%
    09:00 +1°C° 0 mm 5 mps 733 mmHg 58%
    10:00 +2°C° 0 mm 5 mps 733 mmHg 53%
    11:00 +2°C° 0 mm 5 mps 733 mmHg 49%
    12:00 +3°C° 0 mm 5 mps 733 mmHg 44%
    13:00 +3°C° 0 mm 5 mps 733 mmHg 44%
    14:00 +4°C° 0 mm 4 mps 733 mmHg 45%
    15:00 +4°C° 0 mm 4 mps 733 mmHg 45%
    16:00 +3°C° 0 mm 4 mps 733 mmHg 49%
    17:00 +3°C° 0 mm 4 mps 733 mmHg 53%
    18:00 +2°C° 0 mm 3 mps 733 mmHg 57%
    19:00 +1°C° 0 mm 3 mps 733 mmHg 60%
    20:00 +1°C° 0 mm 3 mps 734 mmHg 62%
    21:00 +1°C° 0 mm 2 mps 734 mmHg 65%
    22:00 +1°C° 0 mm 2 mps 734 mmHg 66%
    23:00 +1°C° 0 mm 2 mps 734 mmHg 67%

    Tomorrow, 25 January, Friday

    Time Temperature Precipitation Wind Pressure Humidity
    00:00 +1°C° 0 mm 2 mps 734 mmHg 68%
    01:00 +2°C° 0 mm 1 mps 734 mmHg 68%
    02:00 +2°C° 0 mm 1 mps 734 mmHg 69%
    03:00 +1°C° 0 mm 1 mps 733 mmHg 69%
    04:00 +1°C° 0 mm 1 mps 733 mmHg 69%
    05:00 +1°C° 0 mm 1 mps 733 mmHg 69%
    06:00 +1°C° 0 mm 1 mps 733 mmHg 69%
    07:00 +2°C° 0 mm 1 mps 733 mmHg 64%
    08:00 +3°C° 0 mm 1 mps 733 mmHg 59%
    09:00 +4°C° 0 mm 1 mps 733 mmHg 54%
    10:00 +6°C° 0 mm 1 mps 733 mmHg 50%
    11:00 +7°C° 0 mm 1 mps 732 mmHg 46%
    12:00 +8°C° 0 mm 1 mps 732 mmHg 42%
    13:00 +8°C° 0 mm 2 mps 731 mmHg 43%
    14:00 +8°C° 0 mm 2 mps 730 mmHg 44%
    15:00 +8°C° 0 mm 3 mps 730 mmHg 45%
    16:00 +7°C° 0 mm 3 mps 730 mmHg 48%
    17:00 +7°C° 0 mm 3 mps 729 mmHg 52%
    18:00 +5°C° 0 mm 4 mps 729 mmHg 56%
    19:00 +5°C° 0.3 mm 4 mps 729 mmHg 58%
    20:00 +5°C° 0.3 mm 5 mps 729 mmHg 61%
    21:00 +5°C° 0.3 mm 5 mps 729 mmHg 64%
    22:00 +3°C° 0.1 mm 6 mps 728 mmHg 62%
    23:00 +3°C° 0.1 mm 6 mps 728 mmHg 60%

    Day after tomorrow, 26 January, Saturday

    Time Temperature Precipitation Wind Pressure Humidity
    00:00 +3°C° 0.1 mm 7 mps 728 mmHg 58%
    01:00 +3°C° 0 mm 6 mps 728 mmHg 58%
    02:00 +2°C° 0 mm 6 mps 727 mmHg 57%
    03:00 +2°C° 0 mm 6 mps 727 mmHg 56%
    04:00 +1°C° 0.1 mm 6 mps 727 mmHg 59%
    05:00 +1°C° 0.1 mm 5 mps 726 mmHg 62%
    06:00 +1°C° 0.1 mm 5 mps 726 mmHg 65%
    07:00 -1°C° 0.6 mm 6 mps 726 mmHg 67%
    08:00 -1°C° 0.6 mm 6 mps 727 mmHg 69%
    09:00 -1°C° 0.6 mm 6 mps 727 mmHg 72%
    10:00 -1°C° 0.5 mm 6 mps 727 mmHg 68%
    11:00 -1°C° 0.5 mm 6 mps 727 mmHg 64%
    12:00 -1°C° 0.5 mm 6 mps 727 mmHg 60%
    13:00 -1°C° 0.4 mm 7 mps 727 mmHg 58%
    14:00 -1°C° 0.4 mm 7 mps 727 mmHg 56%
    15:00 -1°C° 0.4 mm 8 mps 727 mmHg 54%
    16:00 -2°C° 0.1 mm 7 mps 728 mmHg 55%
    17:00 -2°C° 0.1 mm 7 mps 728 mmHg 56%
    18:00 -3°C° 0.1 mm 7 mps 729 mmHg 57%
    19:00 -3°C° 0 mm 7 mps 730 mmHg 60%
    20:00 -3°C° 0 mm 7 mps 730 mmHg 63%
    21:00 -3°C° 0 mm 7 mps 731 mmHg 66%
    22:00 -3°C° 0.1 mm 7 mps 731 mmHg 65%
    23:00 -3°C° 0.1 mm 6 mps 731 mmHg 65%

    27 January, Sunday

    Time Temperature Precipitation Wind Pressure Humidity
    00:00 -3°C° 0.1 mm 6 mps 731 mmHg 64%
    01:00 -3°C° 0 mm 6 mps 731 mmHg 65%
    02:00 -2°C° 0 mm 5 mps 732 mmHg 66%
    03:00 -2°C° 0 mm 5 mps 732 mmHg 67%
    04:00 -2°C° 0 mm 5 mps 732 mmHg 69%
    05:00 -2°C° 0 mm 4 mps 732 mmHg 70%
    06:00 -2°C° 0 mm 4 mps 733 mmHg 71%
    07:00 -1°C° 0 mm 5 mps 733 mmHg 68%
    08:00 -1°C° 0 mm 5 mps 734 mmHg 65%
    09:00 0°C° 0 mm 5 mps 734 mmHg 62%
    10:00 +1°C° 0 mm 5 mps 734 mmHg 60%
    11:00 +1°C° 0 mm 5 mps 734 mmHg 57%
    12:00 +2°C° 0 mm 5 mps 734 mmHg 54%
    13:00 +2°C° 0 mm 5 mps 734 mmHg 54%
    14:00 +3°C° 0 mm 5 mps 734 mmHg 53%
    15:00 +4°C° 0 mm 4 mps 734 mmHg 53%
    16:00 +3°C° 0 mm 4 mps 734 mmHg 57%
    17:00 +2°C° 0 mm 3 mps 734 mmHg 61%
    18:00 +2°C° 0 mm 2 mps 735 mmHg 65%
    19:00 +2°C° 0 mm 2 mps 735 mmHg 67%
    20:00 +1°C° 0 mm 2 mps 735 mmHg 68%
    21:00 +1°C° 0 mm 2 mps 735 mmHg 70%
    22:00 +2°C° 0 mm 1 mps 735 mmHg 69%
    23:00 +1°C° 0 mm 1 mps 734 mmHg 68%

    28 January, Monday

    Time Temperature Precipitation Wind Pressure Humidity
    00:00 +1°C° 0 mm 1 mps 734 mmHg 67%
    01:00 +2°C° 0 mm 1 mps 734 mmHg 68%
    02:00 +2°C° 0 mm 1 mps 734 mmHg 68%
    03:00 +1°C° 0 mm 2 mps 733 mmHg 69%
    04:00 +1°C° 0 mm 2 mps 733 mmHg 70%
    05:00 +2°C° 0 mm 2 mps 733 mmHg 71%
    06:00 +1°C° 0 mm 3 mps 733 mmHg 72%
    07:00 +2°C° 0.1 mm 3 mps 733 mmHg 71%
    08:00 +3°C° 0.1 mm 3 mps 733 mmHg 70%
    09:00 +4°C° 0.1 mm 3 mps 733 mmHg 70%
    10:00 +5°C° 0.3 mm 4 mps 733 mmHg 69%
    11:00 +5°C° 0.3 mm 5 mps 732 mmHg 69%
    12:00 +5°C° 0.3 mm 6 mps 732 mmHg 68%
    13:00 +5°C° 0.2 mm 6 mps 732 mmHg 67%
    14:00 +5°C° 0.2 mm 6 mps 731 mmHg 66%
    15:00 +5°C° 0.2 mm 6 mps 731 mmHg 64%
    16:00 +5°C° 0.1 mm 6 mps 731 mmHg 64%
    17:00 +6°C° 0.1 mm 5 mps 732 mmHg 64%
    18:00 +5°C° 0.1 mm 5 mps 732 mmHg 63%
    19:00 +5°C° 0 mm 5 mps 733 mmHg 64%
    20:00 +4°C° 0 mm 4 mps 733 mmHg 65%
    21:00 +4°C° 0 mm 4 mps 734 mmHg 66%
    22:00 +3°C° 0 mm 3 mps 734 mmHg 68%
    23:00 +3°C° 0 mm 3 mps 734 mmHg 70%

    29 January, Tuesday

    Time Temperature Precipitation Wind Pressure Humidity
    00:00 +2°C° 0 mm 3 mps 734 mmHg 71%
    01:00 +3°C° 0 mm 2 mps 734 mmHg 73%
    02:00 +3°C° 0 mm 2 mps 734 mmHg 75%
    03:00 +2°C° 0 mm 2 mps 734 mmHg 77%
    04:00 +2°C° 0 mm 2 mps 734 mmHg 77%
    05:00 +1°C° 0 mm 2 mps 735 mmHg 77%
    06:00 +1°C° 0 mm 2 mps 735 mmHg 77%
    07:00 +2°C° 0 mm 2 mps 735 mmHg 72%
    08:00 +2°C° 0 mm 2 mps 736 mmHg 68%
    09:00 +3°C° 0 mm 2 mps 736 mmHg 64%
    10:00 +5°C° 0 mm 1 mps 736 mmHg 59%
    11:00 +7°C° 0 mm 1 mps 735 mmHg 54%
    12:00 +8°C° 0 mm 1 mps 735 mmHg 49%
    13:00 +8°C° 0 mm 1 mps 735 mmHg 46%
    14:00 +9°C° 0 mm 1 mps 734 mmHg 44%
    15:00 +9°C° 0 mm 1 mps 734 mmHg 42%
    16:00 +8°C° 0 mm 1 mps 734 mmHg 46%
    17:00 +6°C° 0 mm 1 mps 734 mmHg 50%
    18:00 +5°C° 0 mm 1 mps 734 mmHg 54%
    19:00 +5°C° 0 mm 1 mps 734 mmHg 55%
    20:00 +4°C° 0 mm 2 mps 734 mmHg 55%
    21:00 +3°C° 0 mm 2 mps 734 mmHg 56%
    22:00 +3°C° 0 mm 2 mps 734 mmHg 58%
    23:00 +3°C° 0 mm 2 mps 734 mmHg 60%
    Show more